Time,TemperatureF,DewpointF,PressureIn,WindDirection,WindDirectionDegrees,WindSpeedMPH,WindSpeedGustMPH,Humidity,HourlyPrecipIn,Conditions,Clouds,dailyrainin,SoftwareType,DateUTC
2013-05-03 00:03:00,45.0,40.0,30.16,NNW,346,0.0,-999.0,82,-99.99,,,-99.99,,2013-05-03 04:03:00,
2013-05-03 00:12:00,45.0,40.0,30.16,NNW,346,0.0,-999.0,82,-99.99,,,-99.99,,2013-05-03 04:12:00,
2013-05-03 00:22:00,44.0,39.0,30.15,NNW,346,0.0,-999.0,84,-99.99,,,-99.99,,2013-05-03 04:22:00,
2013-05-03 00:32:00,44.0,39.0,30.15,North,356,1.0,-999.0,84,-99.99,,,-99.99,,2013-05-03 04:32:00,
2013-05-03 00:42:00,44.0,39.0,30.15,North,356,1.0,-999.0,84,-99.99,,,-99.99,,2013-05-03 04:42:00,
2013-05-03 00:53:00,44.0,39.0,30.15,North,360,0.0,-999.0,84,-99.99,,,-99.99,,2013-05-03 04:53:00,
2013-05-03 01:02:00,44.0,40.0,30.14,North,360,0.0,-999.0,85,-99.99,,,-99.99,,2013-05-03 05:02:00,
2013-05-03 01:12:00,44.0,40.0,30.14,North,360,0.0,-999.0,85,-99.99,,,-99.99,,2013-05-03 05:12:00,
2013-05-03 01:21:00,44.0,40.0,30.14,North,360,0.0,-999.0,85,-99.99,,,-99.99,,2013-05-03 05:21:00,
2013-05-03 01:32:00,44.0,40.0,30.13,North,360,0.0,-999.0,85,-99.99,,,-99.99,,2013-05-03 05:32:00,
2013-05-03 01:42:00,44.0,40.0,30.13,North,360,0.0,-999.0,85,-99.99,,,-99.99,,2013-05-03 05:42:00,
2013-05-03 01:52:00,44.0,40.0,30.13,North,360,0.0,-999.0,86,-99.99,,,-99.99,,2013-05-03 05:52:00,
2013-05-03 02:01:00,44.0,40.0,30.12,North,360,0.0,-999.0,86,-99.99,,,-99.99,,2013-05-03 06:01:00,
2013-05-03 02:11:00,44.0,40.0,30.12,North,360,0.0,-999.0,86,-99.99,,,-99.99,,2013-05-03 06:11:00,
2013-05-03 02:21:00,44.0,40.0,30.12,North,360,0.0,-999.0,86,-99.99,,,-99.99,,2013-05-03 06:21:00,
2013-05-03 02:32:00,44.0,40.0,30.11,North,360,0.0,-999.0,86,-99.99,,,-99.99,,2013-05-03 06:32:00,
2013-05-03 02:42:00,44.0,40.0,30.11,North,360,0.0,-999.0,86,-99.99,,,-99.99,,2013-05-03 06:42:00,
2013-05-03 02:52:00,44.0,40.0,30.11,North,360,0.0,-999.0,86,-99.99,,,-99.99,,2013-05-03 06:52:00,
2013-05-03 03:01:00,44.0,40.0,30.10,North,360,0.0,-999.0,86,-99.99,,,-99.99,,2013-05-03 07:01:00,
2013-05-03 03:11:00,44.0,40.0,30.10,North,360,0.0,-999.0,86,-99.99,,,-99.99,,2013-05-03 07:11:00,
2013-05-03 03:21:00,44.0,40.0,30.09,North,360,0.0,-999.0,86,-99.99,,,-99.99,,2013-05-03 07:21:00,
2013-05-03 03:31:00,44.0,40.0,30.10,North,360,0.0,-999.0,86,-99.99,,,-99.99,,2013-05-03 07:31:00,
2013-05-03 03:42:00,44.0,40.0,30.10,North,360,0.0,-999.0,86,-99.99,,,-99.99,,2013-05-03 07:42:00,
2013-05-03 03:52:00,44.0,40.0,30.09,North,360,0.0,-999.0,86,-99.99,,,-99.99,,2013-05-03 07:52:00,
2013-05-03 04:01:00,44.0,40.0,30.10,North,353,0.0,-999.0,87,-99.99,,,-99.99,,2013-05-03 08:01:00,
2013-05-03 04:11:00,44.0,40.0,30.10,North,353,0.0,-999.0,87,-99.99,,,-99.99,,2013-05-03 08:11:00,
2013-05-03 04:21:00,44.0,40.0,30.09,North,353,0.0,-999.0,87,-99.99,,,-99.99,,2013-05-03 08:21:00,
2013-05-03 04:32:00,44.0,40.0,30.09,North,353,0.0,-999.0,87,-99.99,,,-99.99,,2013-05-03 08:32:00,
2013-05-03 04:42:00,44.0,40.0,30.09,North,353,0.0,-999.0,87,-99.99,,,-99.99,,2013-05-03 08:42:00,
2013-05-03 04:53:00,44.0,41.0,30.09,North,353,0.0,-999.0,88,-99.99,,,-99.99,,2013-05-03 08:53:00,
2013-05-03 05:01:00,44.0,41.0,30.09,North,353,0.0,-999.0,88,-99.99,,,-99.99,,2013-05-03 09:01:00,
2013-05-03 05:11:00,44.0,41.0,30.09,North,353,0.0,-999.0,88,-99.99,,,-99.99,,2013-05-03 09:11:00,
2013-05-03 05:21:00,44.0,41.0,30.09,North,353,0.0,-999.0,88,-99.99,,,-99.99,,2013-05-03 09:21:00,
2013-05-03 05:32:00,44.0,41.0,30.09,North,353,0.0,-999.0,88,-99.99,,,-99.99,,2013-05-03 09:32:00,
2013-05-03 05:42:00,44.0,41.0,30.09,North,353,0.0,-999.0,88,-99.99,,,-99.99,,2013-05-03 09:42:00,
2013-05-03 05:53:00,44.0,41.0,30.08,North,353,0.0,-999.0,88,-99.99,,,-99.99,,2013-05-03 09:53:00,
2013-05-03 06:02:00,45.0,41.0,30.08,North,353,0.0,-999.0,87,-99.99,,,-99.99,,2013-05-03 10:02:00,
2013-05-03 06:12:00,45.0,41.0,30.08,North,353,0.0,-999.0,87,-99.99,,,-99.99,,2013-05-03 10:12:00,
2013-05-03 06:22:00,45.0,41.0,30.08,North,353,0.0,-999.0,87,-99.99,,,-99.99,,2013-05-03 10:22:00,
2013-05-03 06:32:00,45.0,41.0,30.08,North,353,0.0,-999.0,87,-99.99,,,-99.99,,2013-05-03 10:32:00,
2013-05-03 06:42:00,45.0,41.0,30.08,North,353,0.0,-999.0,87,-99.99,,,-99.99,,2013-05-03 10:42:00,
2013-05-03 06:52:00,45.0,41.0,30.09,North,353,0.0,-999.0,87,-99.99,,,-99.99,,2013-05-03 10:52:00,
2013-05-03 07:02:00,45.0,41.0,30.08,North,353,0.0,-999.0,87,-99.99,,,-99.99,,2013-05-03 11:02:00,
2013-05-03 07:11:00,45.0,41.0,30.08,North,353,0.0,-999.0,87,-99.99,,,-99.99,,2013-05-03 11:11:00,
2013-05-03 07:22:00,45.0,41.0,30.08,North,353,0.0,-999.0,87,-99.99,,,-99.99,,2013-05-03 11:22:00,
2013-05-03 07:31:00,46.0,42.0,30.08,North,353,0.0,-999.0,87,-99.99,,,-99.99,,2013-05-03 11:31:00,
2013-05-03 07:42:00,46.0,42.0,30.08,North,353,0.0,-999.0,87,-99.99,,,-99.99,,2013-05-03 11:42:00,
2013-05-03 07:52:00,46.0,42.0,30.09,North,353,0.0,-999.0,87,-99.99,,,-99.99,,2013-05-03 11:52:00,
2013-05-03 08:01:00,46.0,42.0,30.09,North,353,0.0,-999.0,86,-99.99,,,-99.99,,2013-05-03 12:01:00,
2013-05-03 08:11:00,46.0,42.0,30.09,North,353,0.0,-999.0,86,-99.99,,,-99.99,,2013-05-03 12:11:00,
2013-05-03 08:21:00,47.0,43.0,30.09,North,353,0.0,-999.0,86,-99.99,,,-99.99,,2013-05-03 12:21:00,
2013-05-03 08:32:00,47.0,43.0,30.09,North,353,0.0,-999.0,86,-99.99,,,-99.99,,2013-05-03 12:32:00,
2013-05-03 08:42:00,47.0,43.0,30.09,North,353,0.0,-999.0,86,-99.99,,,-99.99,,2013-05-03 12:42:00,
2013-05-03 08:52:00,48.0,44.0,30.09,North,353,0.0,-999.0,85,-99.99,,,-99.99,,2013-05-03 12:52:00,
2013-05-03 09:01:00,49.0,44.0,30.08,North,353,0.0,-999.0,84,-99.99,,,-99.99,,2013-05-03 13:01:00,
2013-05-03 09:11:00,49.0,44.0,30.08,North,353,0.0,-999.0,84,-99.99,,,-99.99,,2013-05-03 13:11:00,
2013-05-03 09:22:00,51.0,45.0,30.08,North,353,0.0,-999.0,79,-99.99,,,-99.99,,2013-05-03 13:22:00,
2013-05-03 09:32:00,54.0,47.0,30.08,North,353,0.0,-999.0,76,-99.99,,,-99.99,,2013-05-03 13:32:00,
2013-05-03 09:42:00,54.0,47.0,30.08,North,353,0.0,-999.0,76,-99.99,,,-99.99,,2013-05-03 13:42:00,
2013-05-03 09:52:00,58.0,49.0,30.08,North,354,0.0,-999.0,72,-99.99,,,-99.99,,2013-05-03 13:52:00,
2013-05-03 10:02:00,59.0,49.0,30.07,North,354,0.0,-999.0,70,-99.99,,,-99.99,,2013-05-03 14:02:00,
2013-05-03 10:11:00,59.0,49.0,30.07,North,354,0.0,-999.0,70,-99.99,,,-99.99,,2013-05-03 14:11:00,
2013-05-03 10:22:00,62.0,51.0,30.06,East,86,0.0,-999.0,68,-99.99,,,-99.99,,2013-05-03 14:22:00,
2013-05-03 10:32:00,64.0,53.0,30.06,ENE,68,0.0,-999.0,68,-99.99,,,-99.99,,2013-05-03 14:32:00,
2013-05-03 10:42:00,64.0,53.0,30.06,ENE,68,0.0,-999.0,68,-99.99,,,-99.99,,2013-05-03 14:42:00,
2013-05-03 10:52:00,66.0,54.0,30.06,East,99,0.0,-999.0,66,-99.99,,,-99.99,,2013-05-03 14:52:00,
2013-05-03 11:01:00,68.0,56.0,30.06,ESE,107,0.0,-999.0,65,-99.99,,,-99.99,,2013-05-03 15:01:00,
2013-05-03 11:11:00,68.0,56.0,30.06,ESE,107,0.0,-999.0,65,-99.99,,,-99.99,,2013-05-03 15:11:00,
2013-05-03 11:22:00,68.0,56.0,30.05,ESE,121,0.0,-999.0,65,-99.99,,,-99.99,,2013-05-03 15:22:00,
2013-05-03 11:32:00,69.0,57.0,30.05,ESE,110,0.0,-999.0,65,-99.99,,,-99.99,,2013-05-03 15:32:00,
2013-05-03 11:43:00,69.0,57.0,30.05,ESE,110,0.0,-999.0,65,-99.99,,,-99.99,,2013-05-03 15:43:00,
2013-05-03 11:53:00,71.0,58.0,30.05,ESE,109,0.0,-999.0,63,-99.99,,,-99.99,,2013-05-03 15:53:00,
2013-05-03 12:03:00,73.0,57.0,30.04,SE,127,0.0,-999.0,58,-99.99,,,-99.99,,2013-05-03 16:03:00,
2013-05-03 12:12:00,73.0,57.0,30.04,SE,127,0.0,-999.0,58,-99.99,,,-99.99,,2013-05-03 16:12:00,
2013-05-03 12:22:00,74.0,58.0,30.04,South,171,0.0,-999.0,58,-99.99,,,-99.99,,2013-05-03 16:22:00,
2013-05-03 12:32:00,75.0,58.0,30.04,SSE,167,0.0,-999.0,55,-99.99,,,-99.99,,2013-05-03 16:32:00,
2013-05-03 12:42:00,75.0,58.0,30.04,SSE,167,0.0,-999.0,55,-99.99,,,-99.99,,2013-05-03 16:42:00,
2013-05-03 12:52:00,75.0,58.0,30.04,SSE,151,0.0,-999.0,55,-99.99,,,-99.99,,2013-05-03 16:52:00,
2013-05-03 13:02:00,76.0,57.0,30.03,ESE,114,0.0,-999.0,52,-99.99,,,-99.99,,2013-05-03 17:02:00,
2013-05-03 13:12:00,76.0,57.0,30.03,ESE,114,0.0,-999.0,52,-99.99,,,-99.99,,2013-05-03 17:12:00,
2013-05-03 13:23:00,75.0,57.0,30.02,ESE,109,2.0,-999.0,53,-99.99,,,-99.99,,2013-05-03 17:23:00,
2013-05-03 13:32:00,76.0,58.0,30.02,East,93,0.0,-999.0,53,-99.99,,,-99.99,,2013-05-03 17:32:00,
2013-05-03 13:42:00,76.0,58.0,30.02,East,93,0.0,-999.0,53,-99.99,,,-99.99,,2013-05-03 17:42:00,
2013-05-03 13:52:00,74.0,57.0,30.02,South,181,0.0,-999.0,55,-99.99,,,-99.99,,2013-05-03 17:52:00,
2013-05-03 14:01:00,74.0,57.0,30.02,SSE,157,0.0,-999.0,55,-99.99,,,-99.99,,2013-05-03 18:01:00,
2013-05-03 14:12:00,74.0,57.0,30.02,SSE,157,0.0,-999.0,55,-99.99,,,-99.99,,2013-05-03 18:12:00,
2013-05-03 14:21:00,76.0,59.0,30.01,SW,226,0.0,-999.0,56,-99.99,,,-99.99,,2013-05-03 18:21:00,
2013-05-03 14:32:00,75.0,57.0,30.01,SE,143,0.0,-999.0,53,-99.99,,,-99.99,,2013-05-03 18:32:00,
2013-05-03 14:42:00,75.0,57.0,30.01,SE,143,0.0,-999.0,53,-99.99,,,-99.99,,2013-05-03 18:42:00,
2013-05-03 14:52:00,75.0,57.0,30.01,ENE,76,0.0,-999.0,53,-99.99,,,-99.99,,2013-05-03 18:52:00,
2013-05-03 15:01:00,76.0,57.0,30.01,SE,133,0.0,-999.0,52,-99.99,,,-99.99,,2013-05-03 19:01:00,
2013-05-03 15:11:00,76.0,57.0,30.01,SE,133,0.0,-999.0,52,-99.99,,,-99.99,,2013-05-03 19:11:00,
2013-05-03 15:21:00,75.0,57.0,30.00,SSE,154,0.0,-999.0,54,-99.99,,,-99.99,,2013-05-03 19:21:00,
2013-05-03 15:32:00,75.0,58.0,30.01,SE,128,0.0,-999.0,55,-99.99,,,-99.99,,2013-05-03 19:32:00,
2013-05-03 15:41:00,75.0,58.0,30.01,SE,128,0.0,-999.0,55,-99.99,,,-99.99,,2013-05-03 19:41:00,
2013-05-03 15:52:00,75.0,57.0,30.00,ESE,123,0.0,-999.0,53,-99.99,,,-99.99,,2013-05-03 19:52:00,
2013-05-03 16:02:00,76.0,57.0,30.00,ENE,69,0.0,-999.0,52,-99.99,,,-99.99,,2013-05-03 20:02:00,
2013-05-03 16:11:00,76.0,57.0,30.00,ENE,69,0.0,-999.0,52,-99.99,,,-99.99,,2013-05-03 20:11:00,
2013-05-03 16:21:00,70.0,57.0,30.01,WSW,241,0.0,-999.0,63,-99.99,,,-99.99,,2013-05-03 20:21:00,
2013-05-03 16:31:00,67.0,55.0,30.01,West,260,0.0,-999.0,66,-99.99,,,-99.99,,2013-05-03 20:31:00,
2013-05-03 16:42:00,67.0,55.0,30.01,West,260,0.0,-999.0,66,-99.99,,,-99.99,,2013-05-03 20:42:00,
2013-05-03 16:52:00,67.0,55.0,30.01,SW,222,0.0,-999.0,66,-99.99,,,-99.99,,2013-05-03 20:52:00,
2013-05-03 17:01:00,66.0,54.0,30.00,NW,306,0.0,-999.0,66,-99.99,,,-99.99,,2013-05-03 21:01:00,
2013-05-03 17:11:00,66.0,54.0,30.00,NW,306,0.0,-999.0,66,-99.99,,,-99.99,,2013-05-03 21:11:00,
2013-05-03 17:21:00,66.0,55.0,30.00,North,4,0.0,-999.0,67,-99.99,,,-99.99,,2013-05-03 21:21:00,
2013-05-03 17:33:00,66.0,55.0,30.00,ESE,114,0.0,-999.0,67,-99.99,,,-99.99,,2013-05-03 21:33:00,
2013-05-03 17:42:00,66.0,55.0,30.00,ESE,114,0.0,-999.0,67,-99.99,,,-99.99,,2013-05-03 21:42:00,
2013-05-03 17:53:00,66.0,54.0,29.99,NNW,346,0.0,-999.0,66,-99.99,,,-99.99,,2013-05-03 21:53:00,
2013-05-03 18:02:00,66.0,54.0,29.99,North,4,0.0,-999.0,66,-99.99,,,-99.99,,2013-05-03 22:02:00,
2013-05-03 18:12:00,66.0,54.0,29.99,North,4,0.0,-999.0,66,-99.99,,,-99.99,,2013-05-03 22:12:00,
2013-05-03 18:22:00,66.0,55.0,29.99,North,1,0.0,-999.0,67,-99.99,,,-99.99,,2013-05-03 22:22:00,
2013-05-03 18:32:00,66.0,56.0,29.99,NNW,343,0.0,-999.0,69,-99.99,,,-99.99,,2013-05-03 22:32:00,
2013-05-03 18:42:00,66.0,56.0,29.99,NNW,343,0.0,-999.0,69,-99.99,,,-99.99,,2013-05-03 22:42:00,
2013-05-03 18:52:00,66.0,55.0,29.99,North,360,0.0,-999.0,68,-99.99,,,-99.99,,2013-05-03 22:52:00,
2013-05-03 19:01:00,66.0,55.0,29.99,SW,227,0.0,-999.0,68,-99.99,,,-99.99,,2013-05-03 23:01:00,
2013-05-03 19:11:00,66.0,55.0,29.99,SW,227,0.0,-999.0,68,-99.99,,,-99.99,,2013-05-03 23:11:00,
2013-05-03 19:21:00,66.0,55.0,29.99,SW,232,0.0,-999.0,67,-99.99,,,-99.99,,2013-05-03 23:21:00,
2013-05-03 19:31:00,66.0,55.0,29.99,SW,232,0.0,-999.0,68,-99.99,,,-99.99,,2013-05-03 23:31:00,
2013-05-03 19:41:00,66.0,55.0,29.99,SW,232,0.0,-999.0,68,-99.99,,,-99.99,,2013-05-03 23:41:00,
2013-05-03 19:52:00,67.0,56.0,29.99,North,1,0.0,-999.0,68,-99.99,,,-99.99,,2013-05-03 23:52:00,
2013-05-03 20:01:00,67.0,56.0,29.99,North,1,0.0,-999.0,68,-99.99,,,-99.99,,2013-05-04 00:01:00,
2013-05-03 20:11:00,67.0,56.0,29.99,North,1,0.0,-999.0,68,-99.99,,,-99.99,,2013-05-04 00:11:00,
2013-05-03 20:22:00,67.0,56.0,29.99,North,1,0.0,-999.0,68,-99.99,,,-99.99,,2013-05-04 00:22:00,
2013-05-03 20:31:00,66.0,56.0,29.99,North,1,0.0,-999.0,69,-99.99,,,-99.99,,2013-05-04 00:31:00,
2013-05-03 20:41:00,66.0,56.0,29.99,North,1,0.0,-999.0,69,-99.99,,,-99.99,,2013-05-04 00:41:00,
2013-05-03 20:52:00,66.0,56.0,29.99,ENE,59,0.0,-999.0,71,-99.99,,,-99.99,,2013-05-04 00:52:00,
2013-05-03 21:01:00,66.0,57.0,30.00,North,3,0.0,-999.0,72,-99.99,,,-99.99,,2013-05-04 01:01:00,
2013-05-03 21:11:00,66.0,57.0,30.00,North,3,0.0,-999.0,72,-99.99,,,-99.99,,2013-05-04 01:11:00,
2013-05-03 21:21:00,65.0,56.0,30.01,North,3,0.0,-999.0,73,-99.99,,,-99.99,,2013-05-04 01:21:00,
2013-05-03 21:31:00,65.0,56.0,30.00,North,3,0.0,-999.0,74,-99.99,,,-99.99,,2013-05-04 01:31:00,
2013-05-03 21:41:00,65.0,56.0,30.00,North,3,0.0,-999.0,74,-99.99,,,-99.99,,2013-05-04 01:41:00,
2013-05-03 21:52:00,64.0,56.0,30.00,North,3,0.0,-999.0,74,-99.99,,,-99.99,,2013-05-04 01:52:00,
2013-05-03 22:02:00,65.0,55.0,30.00,North,3,0.0,-999.0,69,-99.99,,,-99.99,,2013-05-04 02:02:00,
2013-05-03 22:11:00,65.0,55.0,30.00,North,3,0.0,-999.0,69,-99.99,,,-99.99,,2013-05-04 02:11:00,
2013-05-03 22:21:00,66.0,52.0,30.01,North,4,0.0,-999.0,61,-99.99,,,-99.99,,2013-05-04 02:21:00,
2013-05-03 22:32:00,66.0,51.0,30.01,North,4,0.0,-999.0,58,-99.99,,,-99.99,,2013-05-04 02:32:00,
2013-05-03 22:41:00,66.0,51.0,30.01,North,4,0.0,-999.0,58,-99.99,,,-99.99,,2013-05-04 02:41:00,
2013-05-03 22:52:00,67.0,51.0,30.01,North,4,0.0,-999.0,57,-99.99,,,-99.99,,2013-05-04 02:52:00,
2013-05-03 23:02:00,67.0,50.0,30.00,ENE,62,0.0,-999.0,54,-99.99,,,-99.99,,2013-05-04 03:02:00,
2013-05-03 23:11:00,67.0,50.0,30.00,ENE,62,0.0,-999.0,54,-99.99,,,-99.99,,2013-05-04 03:11:00,
2013-05-03 23:22:00,67.0,49.0,30.01,ENE,65,0.0,-999.0,53,-99.99,,,-99.99,,2013-05-04 03:22:00,
2013-05-03 23:33:00,67.0,49.0,30.00,ENE,78,0.0,-999.0,52,-99.99,,,-99.99,,2013-05-04 03:33:00,
2013-05-03 23:43:00,67.0,49.0,30.00,ENE,78,0.0,-999.0,52,-99.99,,,-99.99,,2013-05-04 03:43:00,
2013-05-03 23:53:00,67.0,48.0,30.00,East,99,0.0,-999.0,50,-99.99,,,-99.99,,2013-05-04 03:53:00,